Tracking 19634 objects as of 21-May-2019
HD Live streaming from Space Station
objects crossing your sky now

GAOFEN 1-03

Track GAOFEN 1-03 now!
10-day predictions


NORAD ID: 43260
Int'l Code: 2018-031B
Perigee: 643.1 km
Apogee: 652.5 km
Inclination: 98.0 °
Period: 97.5 minutes
Semi major axis: 7018 km
RCS: Unknown
Launch date: March 31, 2018
Source: People's Republic of China (PRC)
Launch site: Taiyaun Space Center, China (TSC)
aabbcc
Your satellite tracking list
Your tracking list is empty




NASA's NSSDC Master Catalog

Two Line Element Set (TLE):
1 43260U 18031B   19141.15076113  .00000091  00000-0  20497-4 0  9994
2 43260  97.9962 219.0843 0006692  91.5458 268.6531 14.76430151 61382
Source of the keplerian elements: AFSPC